Location: B?jaj?g
(11.7167°N, 92.6667°E)
Time: 03:20:08
(UTC+00:00)

IRIDIUM 114 - Pass Details

Date: 18 September 2020
Orbit: 776 x 779 km, 86.4° (Epoch: 18 October)

Event Time Altitude Azimuth Distance (km) Brightness Sun altitude
Rises 22:21:56 0° 352° (N) 3,246 7.5 -19.6°
Reaches altitude 10° 22:24:19 10° 348° (NNW) 2,318 6.7 -19.0°
Maximum altitude 22:29:22 55° 271° (W) 923 4.3 -17.7°
Drops below altitude 10° 22:34:26 10° 194° (SSW) 2,317 6.6 -16.5°
Sets 22:36:49 0° 190° (S) 3,244 7.4 -15.9°
